[Date Prev][Date Next][Thread Prev][Thread Next] - [Date Index][Thread Index][Author Index]
2 Line ISS Keps 5-3
- Subject: [sarex] 2 Line ISS Keps 5-3
- From: "Dr Dave Larsen [ PhD ]" <doc@xxxxxxxxxxx>
- Date: Thu, 3 May 2001 02:43:23 -0700
ISS
1 25544U 98067A 01123.16192130 .00046504 00000-0 59180-3 0 9300
2 25544 51.5727 315.6235 0017065 6.8229 148.0308 15.58707719140043
----
Via the sarex mailing list at AMSAT.ORG courtesy of AMSAT-NA.
To unsubscribe, send "unsubscribe sarex" to Majordomo@amsat.org
AMSAT Home